timestamp,surface_pressure_avg,surface_temp_avg,battery_voltage,lat,long
2020-02-27 00:09:01+00:00,313.2263,-0.18,12.65,47.84626,-54.09684
2020-02-27 00:19:01+00:00,325.3013,-0.16,12.65,47.84626,-54.09684
2020-02-27 00:29:01+00:00,329.1796,-0.14,12.65,47.84626,-54.09684
2020-02-27 00:39:01+00:00,332.5831,-0.16,12.65,47.84626,-54.09684
2020-02-27 00:49:01+00:00,337.0546,-0.2,12.65,47.84626,-54.09684
2020-02-27 00:59:01+00:00,338.788,-0.19,12.65,47.84626,-54.09684
2020-02-27 01:09:01+00:00,335.4113,-0.2,12.65,47.84626,-54.09684
2020-02-27 01:19:01+00:00,335.7864,-0.2,12.65,47.84626,-54.09684
2020-02-27 01:29:01+00:00,336.7897,-0.2,12.65,47.84626,-54.09684
2020-02-27 01:39:01+00:00,337.158,-0.2,12.65,47.84626,-54.09684
2020-02-27 01:49:01+00:00,334.9731,-0.2,12.65,47.84626,-54.09684
2020-02-27 01:59:01+00:00,336.5615,-0.2,12.65,47.84626,-54.09684
2020-02-27 02:09:01+00:00,339.9079,-0.2,12.65,47.84626,-54.09684
2020-02-27 02:19:01+00:00,343.5813,-0.2,12.57,47.84626,-54.09684
2020-02-27 02:29:01+00:00,340.3230000000001,-0.2,12.57,47.84626,-54.09684
2020-02-27 02:39:01+00:00,334.7463,-0.2,12.57,47.84626,-54.09684
2020-02-27 02:49:01+00:00,330.9564,-0.2,12.57,47.84626,-54.09684
2020-02-27 02:59:01+00:00,329.3646,-0.2,12.57,47.84626,-54.09684
2020-02-27 03:09:01+00:00,321.828,-0.2,12.57,47.84626,-54.09684
2020-02-27 03:19:01+00:00,320.0065,-0.2,12.57,47.84626,-54.09684
2020-02-27 03:29:01+00:00,320.6729,-0.2,12.57,47.84626,-54.09684
2020-02-27 03:39:01+00:00,318.5347,-0.2,12.57,47.84626,-54.09684
2020-02-27 03:49:01+00:00,313.0381,-0.18,12.57,47.84626,-54.09684
2020-02-27 03:59:01+00:00,313.2263,-0.16,12.57,47.84626,-54.09684
2020-02-27 04:09:01+00:00,305.3181,-0.19,12.57,47.84626,-54.09684
2020-02-27 04:19:01+00:00,295.878,-0.18,12.57,47.84626,-54.09684
2020-02-27 04:29:01+00:00,291.4816,-0.15,12.57,47.84626,-54.09684
2020-02-27 04:39:01+00:00,288.7731,-0.13,12.57,47.84626,-54.09684
2020-02-27 04:49:01+00:00,274.5531,-0.12,12.57,47.84626,-54.09684
2020-02-27 04:59:01+00:00,258.1547,-0.11,12.57,47.84626,-54.09684
2020-02-27 05:09:01+00:00,253.2147,-0.11,12.57,47.84626,-54.09684
2020-02-27 05:19:01+00:00,250.9997,-0.11,12.57,47.84626,-54.09684
2020-02-27 05:29:01+00:00,243.2581,-0.1,12.57,47.84626,-54.09684
2020-02-27 05:39:01+00:00,233.0264,-0.1,12.57,47.84626,-54.09684
2020-02-27 05:49:01+00:00,226.1981,-0.11,12.57,47.84626,-54.09684
2020-02-27 05:59:01+00:00,218.4398,-0.12,12.57,47.84626,-54.09684
2020-02-27 06:09:01+00:00,211.8931,-0.12,12.57,47.84626,-54.09684
2020-02-27 06:19:01+00:00,207.4849,-0.15,12.57,47.84626,-54.09684
2020-02-27 06:29:01+00:00,204.6331,-0.17,12.57,47.84626,-54.09684
2020-02-27 06:39:01+00:00,199.5381,-0.18,12.57,47.84626,-54.09684
2020-02-27 06:49:01+00:00,192.9648,-0.17,12.57,47.84626,-54.09684
2020-02-27 06:59:01+00:00,187.6548,-0.17,12.57,47.84626,-54.09684
2020-02-27 07:09:01+00:00,184.2698,-0.2,12.57,47.84626,-54.09684
2020-02-27 07:19:01+00:00,183.8315,-0.2,12.49,47.84626,-54.09684
2020-02-27 07:29:01+00:00,184.1531,-0.2,12.49,47.84626,-54.09684
2020-02-27 07:39:01+00:00,184.0531,-0.2,12.49,47.84626,-54.09684
2020-02-27 07:49:01+00:00,187.0765,-0.2,12.49,47.84626,-54.09684
2020-02-27 07:59:01+00:00,189.143,-0.2,12.49,47.84626,-54.09684
2020-02-27 08:09:01+00:00,190.6947,-0.2,12.49,47.84626,-54.09684
2020-02-27 08:19:01+00:00,192.5114,-0.2,12.49,47.84626,-54.09684
2020-02-27 08:29:01+00:00,194.9032,-0.2,12.49,47.84626,-54.09684
2020-02-27 08:39:01+00:00,202.0898,-0.2,12.49,47.84626,-54.09684
2020-02-27 08:49:01+00:00,205.2098,-0.2,12.49,47.84626,-54.09684
2020-02-27 08:59:01+00:00,206.9148,-0.2,12.49,47.84626,-54.09684
2020-02-27 09:09:01+00:00,210.1198,-0.2,12.49,47.84626,-54.09684
2020-02-27 09:19:01+00:00,214.4881,-0.2,12.49,47.84626,-54.09684
2020-02-27 09:29:01+00:00,223.6681,-0.2,12.49,47.84626,-54.09684
2020-02-27 09:39:01+00:00,231.2865,-0.2,12.49,47.84626,-54.09684
2020-02-27 09:49:01+00:00,234.2113,-0.2,12.49,47.84626,-54.09684
2020-02-27 09:59:01+00:00,236.2964,-0.2,12.49,47.84626,-54.09684
2020-02-27 10:09:01+00:00,242.8231,-0.2,12.49,47.84626,-54.09684
2020-02-27 10:19:01+00:00,252.1448,-0.2,12.49,47.84626,-54.09684
2020-02-27 10:29:01+00:00,255.7348,-0.2,12.49,47.84626,-54.09684
2020-02-27 10:39:01+00:00,256.7581,-0.2,12.49,47.84626,-54.09684
2020-02-27 10:49:01+00:00,255.0414,-0.2,12.49,47.84626,-54.09684
2020-02-27 10:59:01+00:00,258.3314,-0.2,12.49,47.84626,-54.09684
2020-02-27 11:09:01+00:00,261.6297,-0.2,12.49,47.84626,-54.09684
2020-02-27 11:19:01+00:00,263.9047,-0.2,12.49,47.84626,-54.09684
2020-02-27 11:29:01+00:00,268.7014,-0.2,12.49,47.84626,-54.09684
2020-02-27 11:39:01+00:00,276.2031,-0.2,12.49,47.84626,-54.09684
2020-02-27 11:49:01+00:00,281.9597,-0.2,12.49,47.84626,-54.09684
2020-02-27 11:59:01+00:00,291.213,-0.2,12.49,47.84626,-54.09684
2020-02-27 12:09:01+00:00,302.0997,-0.2,12.49,47.84626,-54.09684
2020-02-27 12:19:01+00:00,314.6163,-0.2,12.65,47.84626,-54.09684
2020-02-27 12:29:01+00:00,320.4813,-0.29,12.65,47.84626,-54.09684
2020-02-27 12:39:01+00:00,325.3797,-0.2,12.65,47.84626,-54.09684
2020-02-27 12:49:01+00:00,328.9997,-0.2,12.65,47.84626,-54.09684
2020-02-27 12:59:01+00:00,332.8280000000001,-0.2,12.65,47.84626,-54.09684
2020-02-27 13:09:01+00:00,338.7679,-0.2,12.65,47.84626,-54.09684
2020-02-27 13:19:01+00:00,342.2131,-0.2,13.13,47.84626,-54.09684
2020-02-27 13:29:01+00:00,344.7513,-0.2,13.13,47.84626,-54.09684
2020-02-27 13:39:01+00:00,352.4396,-0.2,13.13,47.84626,-54.09684
2020-02-27 13:49:01+00:00,358.4696,-0.2,13.13,47.84626,-54.09684
2020-02-27 13:59:01+00:00,359.2396,-0.22,13.13,47.84626,-54.09684
2020-02-27 14:09:01+00:00,356.2064,-0.25,13.13,47.84626,-54.09684
2020-02-27 14:19:01+00:00,358.3663,-0.22,13.53,47.84626,-54.09684
2020-02-27 14:29:01+00:00,356.903,-0.21,13.53,47.84626,-54.09684
2020-02-27 14:39:01+00:00,351.1063,-0.2,13.53,47.84626,-54.09684
2020-02-27 14:49:01+00:00,349.4046,-0.2,13.53,47.84626,-54.09684
2020-02-27 14:59:01+00:00,350.413,-0.2,13.53,47.84626,-54.09684
2020-02-27 15:09:01+00:00,340.3097,-0.2,13.53,47.84626,-54.09684
2020-02-27 15:19:01+00:00,329.2163,-0.2,14.0,47.84626,-54.09684
2020-02-27 15:29:01+00:00,325.303,-0.2,14.0,47.84626,-54.09684
2020-02-27 15:39:01+00:00,323.973,-0.2,14.0,47.84626,-54.09684
2020-02-27 15:49:01+00:00,323.1414,-0.2,14.0,47.84626,-54.09684
2020-02-27 15:59:01+00:00,319.243,-0.21,14.0,47.84626,-54.09684
2020-02-27 16:09:01+00:00,316.2697,-0.2,14.0,47.84626,-54.09684
2020-02-27 16:19:01+00:00,313.093,-0.2,14.4,47.84626,-54.09684
2020-02-27 16:29:01+00:00,310.313,-0.2,14.4,47.84626,-54.09684
2020-02-27 16:39:01+00:00,309.8696,-0.2,14.4,47.84626,-54.09684
2020-02-27 16:49:01+00:00,303.7214,-0.2,14.4,47.84626,-54.09684
2020-02-27 16:59:01+00:00,295.848,-0.2,14.4,47.84626,-54.09684
2020-02-27 17:09:01+00:00,289.4664,-0.2,14.4,47.84626,-54.09684
2020-02-27 17:19:01+00:00,278.4214,-0.2,14.72,47.84626,-54.09684
2020-02-27 17:29:01+00:00,265.6031,-0.2,14.72,47.84626,-54.09684
2020-02-27 17:39:01+00:00,260.6764,-0.2,14.72,47.84626,-54.09684
2020-02-27 17:49:01+00:00,258.9415,-0.2,14.72,47.84626,-54.09684
2020-02-27 17:59:01+00:00,252.3631,-0.16,14.72,47.84626,-54.09684
2020-02-27 18:09:01+00:00,245.4248,-0.16,14.72,47.84626,-54.09684
2020-02-27 18:19:01+00:00,240.5381,-0.14,14.48,47.84626,-54.09684
2020-02-27 18:29:01+00:00,231.1397,-0.15,14.48,47.84626,-54.09684
2020-02-27 18:39:01+00:00,215.1698,-0.12,14.48,47.84626,-54.09684
2020-02-27 18:49:01+00:00,208.0265,-0.11,14.48,47.84626,-54.09684
2020-02-27 18:59:01+00:00,208.4948,-0.11,14.48,47.84626,-54.09684
2020-02-27 19:09:01+00:00,196.9881,-0.1,14.48,47.84626,-54.09684
2020-02-27 19:19:01+00:00,182.2798,-0.1,14.32,47.84626,-54.09684
2020-02-27 19:29:01+00:00,181.8865,-0.1,14.32,47.84626,-54.09684
2020-02-27 19:39:01+00:00,179.7948,-0.1,14.32,47.84626,-54.09684
2020-02-27 19:49:01+00:00,175.4748,-0.1,14.32,47.84626,-54.09684
2020-02-27 19:59:01+00:00,183.3514,-0.1,14.32,47.84626,-54.09684
2020-02-27 20:09:01+00:00,189.4214,-0.1,14.32,47.84626,-54.09684
2020-02-27 20:19:01+00:00,192.1864,-0.1,14.0,47.84626,-54.09684
2020-02-27 20:29:01+00:00,199.4481,-0.1,14.0,47.84626,-54.09684
2020-02-27 20:39:01+00:00,205.3081,-0.1,14.0,47.84626,-54.09684
2020-02-27 20:49:01+00:00,207.2598,-0.1,14.0,47.84626,-54.09684
2020-02-27 20:59:01+00:00,209.3914,-0.1,14.0,47.84626,-54.09684
2020-02-27 21:09:01+00:00,214.8748,-0.1,14.0,47.84626,-54.09684
2020-02-27 21:19:01+00:00,223.6664,-0.06,13.6,47.84626,-54.09684
2020-02-27 21:29:01+00:00,227.4498,-0.03,13.6,47.84626,-54.09684
2020-02-27 21:39:01+00:00,231.6198,-0.0,13.6,47.84626,-54.09684
2020-02-27 21:49:01+00:00,240.4648,0.0,13.6,47.84626,-54.09684
2020-02-27 21:59:01+00:00,243.1848,0.0,13.6,47.84626,-54.09684
2020-02-27 22:09:01+00:00,241.6281,0.0,13.6,47.84626,-54.09684
2020-02-27 22:19:01+00:00,246.1698,0.0,13.21,47.84626,-54.09684
2020-02-27 22:29:01+00:00,254.3481,0.0,13.21,47.84626,-54.09684
2020-02-27 22:39:01+00:00,252.6681,0.0,13.21,47.84626,-54.09684
2020-02-27 22:49:01+00:00,256.1764,0.0,13.21,47.84626,-54.09684
2020-02-27 22:59:01+00:00,264.3347,-0.0,13.21,47.84626,-54.09684
2020-02-27 23:09:01+00:00,267.1981,0.0,13.21,47.84626,-54.09684
2020-02-27 23:19:01+00:00,268.0447,0.0,12.81,47.84626,-54.09684
2020-02-27 23:29:01+00:00,270.4547,0.0,12.81,47.84626,-54.09684
2020-02-27 23:39:01+00:00,281.7114,-0.0,12.81,47.84626,-54.09684
2020-02-27 23:49:01+00:00,290.0364,-0.0,12.81,47.84626,-54.09684
2020-02-27 23:59:01+00:00,297.6396,0.0,12.81,47.84626,-54.09684
